Flag for Iceland Weather past 2 weeks in Reykjavik, Iceland

Now
52 °F

Partly sunny.


Feels Like: 46 °F
Forecast: N/A
Wind: 21 mph from Southwest

Location: Reykjavik Airport

Current Time: Sep 5, 2015 at 3:10:52 PM

Latest Report: Sep 5, 2015 at 2:00 PM


Visibility: N/A

Pressure: 30.07 "Hg

Humidity: 88%

Dew point: 48 °F

Location of ReykjavikLocation

Historic Weather in Reykjavik — Graph

°F

Reykjavik temperature yesterday

Maximum temperature yesterday: 52 °F (at 10:00 PM)
Minimum temperature yesterday: 45 °F (at 2:00 AM)
Average temperature yesterday: 48 °F

Past Weeks' High & Low Weather Summary

 TemperatureHumidityPressure
High70 °F (Aug 25, 2:00 PM)94% (Aug 21, 11:00 PM)30.36 "Hg (Aug 21, 11:00 PM)
Low41 °F (Aug 29, 3:00 AM)43% (Aug 25, 2:00 PM)29.15 "Hg (Aug 27, 5:00 AM)
Average51 °F76%29.85 "Hg
* Reported Aug 21 2:00 PM — Sep 5 2:00 PM, Reykjavik, Weather by CustomWeather, © 2015

Note: Actual official high and low records may vary slightly from our data, if they occured in-between our weather recording intervals... More about our weather records

Advertising

Reykjavik weather history for previous 24 hours

 ConditionsComfort  
Time TempWeatherWind HumidityBarometerVisibility
2:00 PM
Sat, Sep 5
52 °FPartly sunny.21 mph88%30.07 "HgN/A
1:00 PM50 °FDrizzle. More clouds than sun.18 mph94%30.07 "Hg6 mi
12:00 PM50 °FDrizzle. More clouds than sun.15 mph94%30.07 "Hg1 mi
11:00 AM50 °FDrizzle. Low clouds.15 mph94%30.07 "Hg1 mi
10:00 AM50 °FDrizzle. Low clouds.14 mph94%30.07 "Hg1 mi
9:00 AM50 °FDrizzle. Low clouds.15 mph94%30.07 "Hg1 mi
8:00 AM50 °FDrizzle. Low clouds.14 mph94%30.07 "Hg1 mi
7:00 AM50 °FDrizzle. Low clouds.15 mph94%30.09 "Hg1 mi
6:00 AM50 °FRain. Mostly cloudy.14 mph88%30.09 "Hg2 mi
5:00 AM50 °FRain. Mostly cloudy.13 mph88%30.12 "Hg3 mi
4:00 AM50 °FLight rain. Mostly cloudy.13 mph88%30.12 "HgN/A
3:00 AM50 °FLight rain. Mostly cloudy.13 mph82%30.15 "HgN/A
2:00 AM48 °FPassing clouds.15 mph94%30.18 "HgN/A
1:00 AM50 °FDrizzle. Mostly cloudy.15 mph88%30.21 "HgN/A
12:00 AM52 °FPassing clouds.12 mph82%30.24 "HgN/A
11:00 PM
Fri, Sep 4
52 °FPassing clouds.7 mph82%30.27 "HgN/A
10:00 PM52 °FPassing clouds.5 mph82%30.27 "HgN/A
9:00 PM50 °FPassing clouds.No wind76%30.27 "HgN/A
8:00 PM50 °FPartly sunny.2 mph76%30.30 "HgN/A
7:00 PM50 °FBroken clouds.No wind71%30.33 "HgN/A
6:00 PM50 °FBroken clouds.1 mph71%30.33 "HgN/A
5:00 PM48 °FBroken clouds.3 mph76%30.33 "HgN/A
4:00 PM50 °FBroken clouds.3 mph76%30.33 "HgN/A
3:00 PM48 °FPartly sunny.7 mph82%30.36 "HgN/A
Weather by CustomWeather, © 2015

See weather overviewHow to use our weather pages